FW5172 Weather Reports


Display with metric or nautical units.
time (UTC)temp
F
wind
direction
speed
MPH
gust
MPH
rain 1hr
in
rain 24hr
in
rain mn
in
humidity
%
barometer
mb
20260508200036 69 229 2.0 9.0 0.00 0.00 0.00 52 1016.6
20260508195538 69 224 1.0 7.0 0.00 0.00 0.00 53 1016.7
20260508195034 68 263 1.0 9.0 0.00 0.00 0.00 53 1016.6
20260508194538 69 118 5.0 10.0 0.00 0.00 0.00 51 1016.7
20260508194035 69 162 1.0 10.0 0.00 0.00 0.00 54 1017.0
20260508193532 68 103 4.0 9.0 0.00 0.00 0.00 52 1017.0
20260508193033 69 108 3.0 7.0 0.00 0.00 0.00 51 1017.1
20260508192534 69 208 1.0 6.0 0.00 0.00 0.00 51 1017.2
20260508192031 69 203 1.0 10.0 0.00 0.00 0.00 52 1017.2
20260508191535 69 195 2.0 10.0 0.00 0.00 0.00 54 1017.4
20260508191028 69 105 1.0 7.0 0.00 0.00 0.00 50 1017.5
20260508190527 69 163 1.0 11.0 0.00 0.00 0.00 52 1017.6
20260508190027 68 264 6.0 10.0 0.00 0.00 0.00 50 1017.6
20260508185526 68 236 3.0 9.0 0.00 0.00 0.00 49 1017.6
20260508185025 68 158 2.0 9.0 0.00 0.00 0.00 52 1017.6
20260508184525 68 145 1.0 10.0 0.00 0.00 0.00 50 1017.6
20260508184022 68 134 3.0 10.0 0.00 0.00 0.00 51 1017.8
20260508183522 68 200 2.0 11.0 0.00 0.00 0.00 50 1017.9
20260508183028 68 125 3.0 11.0 0.00 0.00 0.00 51 1017.9
20260508182519 68 243 4.0 11.0 0.00 0.00 0.00 51 1017.9
20260508182018 67 93 3.0 12.0 0.00 0.00 0.00 50 1018.0
20260508181517 67 150 4.0 12.0 0.00 0.00 0.00 52 1018.0
20260508181018 67 117 1.0 8.0 0.00 0.00 0.00 51 1018.1
20260508180517 67 113 3.0 7.0 0.00 0.00 0.00 50 1018.3
20260508180020 68 118 1.0 7.0 0.00 0.00 0.00 49 1018.5
20260508175513 67 234 3.0 7.0 0.00 0.00 0.00 54 1018.6
20260508175014 66 73 1.0 8.0 0.00 0.00 0.00 51 1018.6
20260508174512 66 145 2.0 7.0 0.00 0.00 0.00 52 1018.6
20260508174015 67 269 1.0 11.0 0.00 0.00 0.00 51 1018.6
20260508173509 66 290 4.0 9.0 0.00 0.00 0.00 51 1018.6
20260508173010 66 140 4.0 7.0 0.00 0.00 0.00 51 1018.7
20260508172511 66 240 2.0 6.0 0.00 0.00 0.00 53 1018.8
20260508172007 66 151 2.0 7.0 0.00 0.00 0.00 51 1018.9
20260508171503 66 231 2.0 10.0 0.00 0.00 0.00 54 1018.8
20260508171000 65 124 3.0 10.0 0.00 0.00 0.00 54 1018.9
20260508170600 66 68 3.0 7.0 0.00 0.00 0.00 50 1018.9
20260508170059 66 159 0.0 9.0 0.00 0.00 0.00 57 1019.1
20260508165558 65 161 3.0 11.0 0.00 0.00 0.00 55 1019.3
20260508165057 65 146 4.0 10.0 0.00 0.00 0.00 56 1019.4
20260508164557 65 281 1.0 5.0 0.00 0.00 0.00 58 1019.6
20260508164055 65 232 2.0 8.0 0.00 0.00 0.00 55 1019.6
20260508163554 65 253 2.0 8.0 0.00 0.00 0.00 60 1019.5
20260508163053 65 172 2.0 9.0 0.00 0.00 0.00 57 1019.6
20260508162553 65 101 4.0 9.0 0.00 0.00 0.00 56 1019.7
20260508162052 65 250 0.0 7.0 0.00 0.00 0.00 58 1019.9
20260508161557 65 216 1.0 5.0 0.00 0.00 0.00 58 1019.7
20260508161050 65 202 0.0 6.0 0.00 0.00 0.00 59 1019.9
20260508160551 65 133 1.0 6.0 0.00 0.00 0.00 62 1020.0
20260508160048 64 112 2.0 6.0 0.00 0.00 0.00 58 1020.1
20260508155547 65 150 0.0 6.0 0.00 0.00 0.00 59 1020.0
20260508155046 64 109 2.0 6.0 0.00 0.00 0.00 58 1020.1
20260508154604 64 258 0.0 6.0 0.00 0.00 0.00 59 1020.3
20260508154043 64 247 2.0 6.0 0.00 0.00 0.00 58 1020.3
20260508153542 64 122 0.0 5.0 0.00 0.00 0.00 61 1020.3
20260508153044 63 255 0.0 7.0 0.00 0.00 0.00 60 1020.4
20260508152541 63 243 0.0 5.0 0.00 0.00 0.00 61 1020.3
20260508152039 62 12 0.0 8.0 0.00 0.00 0.00 60 1020.3
20260508151538 62 316 4.0 8.0 0.00 0.00 0.00 60 1020.2
20260508151038 62 247 3.0 7.0 0.00 0.00 0.00 59 1020.4
20260508150537 62 281 2.0 7.0 0.00 0.00 0.00 60 1020.3
20260508150053 63 319 1.0 4.0 0.00 0.01 0.00 60 1020.4
20260508145535 62 158 0.0 2.0 0.00 0.01 0.00 62 1020.4
20260508145035 62 9 0.0 3.0 0.00 0.01 0.00 60 1020.5
20260508144532 62 266 0.0 3.0 0.00 0.01 0.00 61 1020.6
20260508144033 61 86 0.0 4.0 0.00 0.01 0.00 61 1020.5
20260508143531 61 158 2.0 5.0 0.00 0.01 0.00 61 1020.6
20260508143030 60 305 1.0 7.0 0.00 0.01 0.00 63 1020.6
20260508142527 60 323 4.0 7.0 0.00 0.01 0.00 60 1020.6
20260508142027 60 260 1.0 5.0 0.00 0.01 0.00 62 1020.7
20260508141529 60 328 0.0 3.0 0.00 0.01 0.00 62 1020.6
20260508141026 60 106 0.0 2.0 0.00 0.01 0.00 61 1020.6
20260508140524 60 42 0.0 3.0 0.00 0.01 0.00 60 1020.6
20260508140027 60 302 2.0 3.0 0.00 0.01 0.00 59 1020.7
20260508135523 60 226 0.0 1.0 0.00 0.01 0.00 64 1020.7
20260508135022 60 65 0.0 2.0 0.00 0.01 0.00 62 1020.7
20260508134520 60 220 0.0 2.0 0.00 0.01 0.00 61 1020.7
20260508134018 59 172 0.0 1.0 0.00 0.01 0.00 65 1020.8
20260508133519 58 269 0.0 1.0 0.00 0.01 0.00 67 1020.7
20260508133017 59 246 0.0 1.0 0.00 0.01 0.00 67 1020.8
20260508132515 58 251 0.0 2.0 0.00 0.01 0.00 68 1020.7
20260508132014 58 108 0.0 2.0 0.00 0.01 0.00 68 1020.7
20260508131512 58 133 0.0 1.0 0.00 0.01 0.00 72 1020.7
20260508131012 56 83 0.0 1.0 0.00 0.01 0.00 74 1020.7
20260508130508 56 338 0.0 1.0 0.00 0.01 0.00 73 1020.7
20260508130007 56 285 0.0 0.0 0.00 0.01 0.00 75 1020.7
20260508125506 56 118 0.0 0.0 0.00 0.01 0.00 78 1020.6
20260508125003 55 150 0.0 0.0 0.00 0.01 0.00 83 1020.6
20260508124601 54 238 0.0 0.0 0.00 0.01 0.00 83 1020.5
20260508124059 53 238 0.0 2.0 0.00 0.01 0.00 83 1020.5
20260508123558 53 288 0.0 2.0 0.00 0.01 0.00 83 1020.6
20260508123058 53 342 0.0 1.0 0.00 0.01 0.00 84 1020.5
20260508122555 52 341 0.0 0.0 0.00 0.01 0.00 86 1020.4
20260508122054 52 322 0.0 2.0 0.00 0.01 0.00 87 1020.5
20260508121553 51 322 0.0 3.0 0.00 0.01 0.00 86 1020.4
20260508121051 51 343 1.0 3.0 0.00 0.01 0.00 85 1020.3
20260508120550 51 36 0.0 2.0 0.00 0.01 0.00 86 1020.3
20260508120049 51 325 0.0 0.0 0.00 0.11 0.00 90 1020.3
20260508115548 50 134 0.0 0.0 0.00 0.11 0.00 92 1020.2
20260508115046 49 120 0.0 0.0 0.00 0.11 0.00 93 1020.1
20260508114544 48 120 0.0 0.0 0.00 0.11 0.00 95 1019.9
20260508114043 47 120 0.0 0.0 0.00 0.11 0.00 96 1019.8
20260508113544 46 119 0.0 0.0 0.00 0.11 0.00 96 1019.7
20260508113142 46 105 0.0 0.0 0.00 0.11 0.00 96 1019.7
20260508112539 46 248 0.0 0.0 0.00 0.11 0.00 98 1019.5
20260508112040 44 248 0.0 0.0 0.00 0.11 0.00 97 1019.4
20260508111538 44 248 0.0 0.0 0.00 0.11 0.00 98 1019.3
20260508111037 43 248 0.0 0.0 0.00 0.11 0.00 98 1019.2
20260508110535 43 248 0.0 0.0 0.00 0.11 0.00 98 1019.1
20260508110034 42 248 0.0 0.0 0.00 0.12 0.00 98 1019.0
20260508105533 42 248 0.0 0.0 0.00 0.12 0.00 98 1019.1
20260508105033 43 248 0.0 0.0 0.00 0.12 0.00 98 1019.0
20260508104533 43 248 0.0 0.0 0.00 0.12 0.00 98 1019.0
20260508104030 43 248 0.0 0.0 0.00 0.12 0.00 98 1018.8
20260508103529 43 248 0.0 1.0 0.00 0.12 0.00 98 1018.7
20260508103028 43 248 0.0 1.0 0.00 0.12 0.00 98 1018.5
20260508102527 43 248 0.0 0.0 0.00 0.12 0.00 98 1018.4
20260508102026 43 248 0.0 0.0 0.00 0.12 0.00 97 1018.3
20260508101525 43 248 0.0 0.0 0.00 0.12 0.00 97 1018.1
20260508101023 44 248 0.0 1.0 0.00 0.12 0.00 97 1018.0
20260508100521 44 248 0.0 1.0 0.00 0.12 0.00 97 1018.0
20260508100025 44 248 0.0 1.0 0.00 0.12 0.00 97 1018.0
20260508095520 44 220 0.0 0.0 0.00 0.12 0.00 97 1017.8
20260508095018 44 220 0.0 0.0 0.00 0.12 0.00 96 1017.8
20260508094519 44 220 0.0 1.0 0.00 0.12 0.00 96 1017.7
20260508094021 45 219 0.0 1.0 0.00 0.12 0.00 96 1017.8
20260508093514 45 261 0.0 1.0 0.00 0.12 0.00 96 1017.8
20260508093018 45 263 0.0 1.0 0.00 0.12 0.00 96 1017.8
20260508092513 45 243 0.0 0.0 0.00 0.12 0.00 96 1017.7
20260508092012 45 243 0.0 0.0 0.00 0.12 0.00 96 1017.6
20260508091512 45 243 0.0 0.0 0.00 0.12 0.00 96 1017.7
20260508091010 46 243 0.0 1.0 0.00 0.12 0.00 95 1017.8
20260508090509 46 234 0.0 1.0 0.00 0.12 0.00 95 1017.6
20260508090008 46 240 0.0 2.0 0.00 0.14 0.00 95 1017.5
20260508085507 46 295 0.0 1.0 0.00 0.14 0.00 94 1017.5
20260508085008 46 251 0.0 0.0 0.00 0.14 0.00 94 1017.5
20260508084504 47 257 0.0 1.0 0.00 0.14 0.00 94 1017.5
20260508084004 47 259 0.0 1.0 0.00 0.14 0.00 93 1017.3
20260508083503 47 250 0.0 0.0 0.00 0.14 0.00 92 1017.3
20260508083002 47 249 0.0 1.0 0.00 0.14 0.00 92 1017.4
20260508082502 48 254 0.0 1.0 0.00 0.14 0.00 92 1017.4
20260508082001 48 254 0.0 1.0 0.00 0.14 0.00 90 1017.2
20260508081600 48 254 0.0 1.0 0.00 0.14 0.00 89 1017.2
20260508081059 49 236 0.0 1.0 0.00 0.14 0.00 87 1017.2
20260508080559 50 285 0.0 1.0 0.00 0.14 0.00 86 1017.1
20260508080110 50 281 0.0 5.0 0.00 0.14 0.00 85 1017.1
20260508075556 50 329 1.0 6.0 0.00 0.14 0.00 85 1017.1
20260508075055 51 264 1.0 6.0 0.00 0.14 0.00 85 1017.1
20260508074603 50 4 1.0 6.0 0.00 0.14 0.00 87 1017.0
20260508074052 49 359 0.0 6.0 0.00 0.14 0.00 88 1017.0
20260508073554 49 344 0.0 5.0 0.00 0.14 0.00 89 1016.8
20260508073056 49 16 0.0 3.0 0.00 0.14 0.00 90 1016.8
20260508072550 49 5 0.0 3.0 0.00 0.14 0.00 89 1016.7
20260508072047 49 341 1.0 5.0 0.00 0.14 0.00 90 1016.8
20260508071547 49 354 1.0 5.0 0.00 0.14 0.00 92 1016.7
20260508071040 47 345 3.0 5.0 0.00 0.14 0.00 97 1016.7
20260508070539 46 359 0.0 2.0 0.00 0.14 0.00 98 1016.7
20260508070039 45 350 0.0 2.0 0.00 0.14 0.00 98 1016.7
20260508065537 45 287 0.0 0.0 0.00 0.14 0.00 98 1016.7
20260508065037 45 286 0.0 1.0 0.00 0.14 0.00 97 1016.6
20260508064544 45 276 0.0 1.0 0.00 0.14 0.00 97 1016.7
20260508064035 45 231 0.0 1.0 0.00 0.14 0.00 97 1016.5
20260508063533 45 266 0.0 0.0 0.00 0.14 0.00 97 1016.6
20260508063032 45 267 0.0 0.0 0.00 0.14 0.00 98 1016.6
20260508062530 45 307 0.0 0.0 0.00 0.14 0.00 97 1016.5
20260508062030 45 302 0.0 1.0 0.00 0.14 0.00 97 1016.5
20260508061534 45 276 0.0 1.0 0.00 0.14 0.00 97 1016.5
20260508061028 46 261 0.0 1.0 0.00 0.14 0.00 97 1016.4
20260508060526 46 269 0.0 1.0 0.00 0.14 0.00 97 1016.5
20260508060026 46 240 0.0 0.0 0.00 0.19 0.00 97 1016.5
20260508055524 46 240 0.0 0.0 0.00 0.19 0.00 97 1016.6
20260508055023 46 240 0.0 0.0 0.00 0.19 0.00 97 1016.5
20260508054537 46 240 0.0 1.0 0.00 0.19 0.00 97 1016.5
20260508054122 46 240 0.0 1.0 0.00 0.19 0.00 97 1016.5
20260508053520 46 260 0.0 1.0 0.00 0.19 0.00 96 1016.4
20260508053020 46 260 0.0 1.0 0.00 0.19 0.00 97 1016.6
20260508052518 46 251 0.0 0.0 0.00 0.19 0.00 96 1016.4
20260508052017 47 251 0.0 0.0 0.00 0.19 0.00 96 1016.4
20260508051515 47 250 0.0 1.0 0.00 0.19 0.00 96 1016.4
20260508051016 47 252 0.0 1.0 0.00 0.19 0.00 96 1016.4
20260508050512 47 252 0.0 1.0 0.00 0.19 0.00 96 1016.4
20260508050011 47 239 0.0 1.0 0.00 0.24 0.00 96 1016.3
20260508045510 47 201 0.0 1.0 0.00 0.24 0.00 96 1016.2
20260508045009 47 267 0.0 1.0 0.00 0.24 0.00 96 1016.2
20260508044509 47 262 0.0 1.0 0.00 0.24 0.00 96 1016.1
20260508044007 47 239 0.0 1.0 0.00 0.24 0.00 96 1016.0
20260508043506 47 176 0.0 1.0 0.00 0.24 0.00 95 1015.9
20260508043005 47 230 0.0 1.0 0.00 0.24 0.00 95 1016.0
20260508042504 48 141 0.0 1.0 0.00 0.24 0.00 95 1015.9
20260508042003 48 245 0.0 1.0 0.00 0.24 0.00 95 1016.0
20260508041504 48 262 0.0 2.0 0.00 0.24 0.00 95 1015.9
20260508041100 48 153 0.0 2.0 0.00 0.24 0.00 94 1015.8
20260508040559 48 237 0.0 1.0 0.00 0.24 0.00 94 1015.8
20260508035556 48 234 0.0 2.0 0.00 0.25 0.24 93 1015.9
20260508035055 49 257 0.0 2.0 0.00 0.25 0.24 93 1015.8
20260508034553 49 275 0.0 2.0 0.00 0.25 0.24 91 1015.9
20260508034051 50 245 0.0 0.0 0.00 0.25 0.24 90 1016.0
20260508033553 50 84 0.0 0.0 0.00 0.25 0.24 89 1015.9
20260508033050 51 84 0.0 0.0 0.00 0.25 0.24 88 1015.8
20260508032548 51 84 0.0 0.0 0.00 0.25 0.24 88 1015.8
20260508032047 50 321 0.0 0.0 0.00 0.25 0.24 89 1015.7
20260508031546 50 271 0.0 0.0 0.00 0.25 0.24 90 1015.9
20260508031045 50 125 0.0 0.0 0.00 0.25 0.24 89 1015.7
20260508030544 50 227 0.0 0.0 0.00 0.25 0.24 90 1015.7
20260508030051 50 226 0.0 0.0 0.00 0.26 0.24 90 1015.9
20260508025542 50 225 0.0 0.0 0.00 0.26 0.24 90 1015.7
20260508025142 50 255 0.0 0.0 0.00 0.26 0.24 89 1015.6
20260508024540 51 242 0.0 1.0 0.00 0.26 0.24 88 1015.6
20260508024037 51 276 0.0 1.0 0.00 0.26 0.24 88 1015.4
20260508023537 51 249 0.0 0.0 0.00 0.26 0.24 87 1015.5
20260508023034 51 236 0.0 0.0 0.00 0.26 0.24 86 1015.2
20260508022532 52 235 0.0 0.0 0.00 0.26 0.24 85 1015.1
20260508022031 52 207 0.0 0.0 0.00 0.26 0.24 84 1015.3
20260508021532 53 217 0.0 0.0 0.00 0.26 0.24 83 1015.1
20260508021030 53 259 0.0 1.0 0.00 0.26 0.24 81 1015.1
20260508020525 54 127 0.0 0.0 0.00 0.26 0.24 76 1015.1
20260508020023 55 94 0.0 1.0 0.00 0.28 0.24 75 1015.0
20260508015521 55 23 0.0 2.0 0.00 0.28 0.24 74 1015.0
20260508015021 56 27 0.0 3.0 0.00 0.28 0.24 73 1014.9
20260508014519 56 139 0.0 3.0 0.00 0.28 0.24 72 1014.6
20260508014018 56 63 0.0 4.0 0.00 0.28 0.24 72 1014.6
20260508013516 56 32 1.0 4.0 0.00 0.28 0.24 71 1014.6
20260508013014 57 359 1.0 6.0 0.00 0.28 0.24 70 1014.6
20260508012512 57 13 1.0 6.0 0.00 0.28 0.24 68 1014.4
20260508012011 58 20 3.0 6.0 0.00 0.28 0.24 67 1014.3
20260508011511 58 36 4.0 7.0 0.00 0.28 0.24 67 1014.4
20260508011008 58 342 2.0 7.0 0.00 0.28 0.24 67 1014.2
20260508010507 58 55 2.0 9.0 0.00 0.28 0.24 67 1014.2
20260508010008 58 23 4.0 9.0 0.00 0.38 0.24 67 1014.2
20260508005504 58 23 4.0 9.0 0.00 0.38 0.24 66 1014.0
20260508005004 58 350 4.0 9.0 0.00 0.38 0.24 66 1014.0
20260508004502 58 346 5.0 9.0 0.00 0.38 0.24 66 1013.9
20260508004101 58 358 4.0 9.0 0.00 0.38 0.24 66 1013.7
20260508003603 58 9 4.0 10.0 0.00 0.38 0.24 66 1013.7
20260508003100 59 25 5.0 10.0 0.00 0.38 0.24 67 1013.6
20260508002558 59 27 5.0 14.0 0.00 0.38 0.24 66 1013.4
20260508002057 59 37 5.0 14.0 0.00 0.38 0.24 66 1013.4
20260508001559 59 347 6.0 13.0 0.00 0.38 0.24 66 1013.4
20260508001056 59 343 5.0 20.0 0.00 0.38 0.24 67 1013.3
20260508000557 59 335 7.0 12.0 0.00 0.38 0.24 67 1013.1
20260508000057 60 320 8.0 12.0 0.00 0.45 0.24 67 1013.1
20260507235550 60 23 7.0 12.0 0.00 0.45 0.24 67 1013.1
20260507235048 61 337 5.0 9.0 0.00 0.45 0.24 67 1013.1
20260507234554 61 346 2.0 13.0 0.00 0.45 0.24 68 1013.2
20260507234046 61 10 4.0 13.0 0.00 0.45 0.24 67 1013.1
20260507233545 61 351 5.0 10.0 0.00 0.45 0.24 67 1013.2
20260507233108 61 38 5.0 13.0 0.00 0.45 0.24 68 1012.9
20260507232545 61 56 6.0 17.0 0.00 0.45 0.24 68 1012.7
20260507232047 61 3 8.0 17.0 0.00 0.45 0.24 67 1012.7
20260507231542 61 340 6.0 14.0 0.00 0.45 0.24 68 1012.8
20260507231041 62 13 8.0 14.0 0.00 0.45 0.24 67 1012.6
20260507230541 62 325 4.0 14.0 0.00 0.45 0.24 68 1012.6
20260507230045 62 3 3.0 16.0 0.00 0.46 0.24 68 1012.7
20260507225539 62 352 6.0 20.0 0.00 0.46 0.24 68 1012.6
20260507225039 62 327 11.0 20.0 0.00 0.46 0.24 68 1012.5
20260507224538 62 15 10.0 23.0 0.00 0.46 0.24 68 1012.4
20260507224036 62 328 11.0 23.0 0.00 0.46 0.24 68 1012.3
20260507223535 63 5 11.0 20.0 0.00 0.46 0.24 68 1012.2
20260507223041 63 305 12.0 23.0 0.00 0.46 0.24 68 1012.0
20260507222534 63 271 12.0 23.0 0.00 0.46 0.24 68 1011.9
20260507222032 63 25 10.0 23.0 0.00 0.46 0.24 69 1011.8
20260507221534 63 36 12.0 24.0 0.00 0.46 0.24 69 1011.6
20260507221029 64 339 17.0 24.0 0.00 0.46 0.24 68 1011.5
20260507220526 65 355 11.0 26.0 0.00 0.46 0.24 68 1011.3
20260507220034 65 340 16.0 26.0 0.00 0.46 0.24 68 1011.1
20260507215525 66 314 10.0 21.0 0.00 0.46 0.24 68 1011.0
20260507215024 66 351 13.0 22.0 0.00 0.46 0.24 67 1010.8
20260507214524 67 352 14.0 22.0 0.00 0.46 0.24 66 1010.8
20260507214022 67 18 12.0 20.0 0.00 0.46 0.24 66 1010.7
20260507213521 68 354 11.0 17.0 0.00 0.46 0.24 66 1010.6
20260507213027 68 349 10.0 14.0 0.00 0.46 0.24 67 1010.6
20260507212520 67 29 6.0 16.0 0.00 0.46 0.24 67 1010.5
20260507212019 67 346 9.0 16.0 0.00 0.46 0.24 67 1010.6
20260507211519 68 34 4.0 13.0 0.00 0.46 0.24 67 1010.4
20260507211012 69 131 2.0 10.0 0.00 0.46 0.24 67 1010.3
20260507210512 69 112 2.0 10.0 0.00 0.46 0.24 67 1010.2
20260507210013 70 6 1.0 5.0 0.00 0.46 0.24 66 1010.2
20260507205512 70 328 1.0 8.0 0.00 0.46 0.24 65 1010.1
20260507205011 71 116 3.0 7.0 0.00 0.46 0.24 63 1010.2
20260507204509 72 53 2.0 9.0 0.00 0.46 0.24 64 1010.1
20260507204005 73 109 4.0 9.0 0.00 0.46 0.24 65 1010.0
20260507203505 73 42 1.0 6.0 0.00 0.46 0.24 64 1010.0
20260507203004 73 50 2.0 12.0 0.00 0.46 0.24 65 1009.9
20260507202503 73 78 5.0 10.0 0.00 0.46 0.24 64 1009.9
20260507202002 73 122 3.0 11.0 0.00 0.46 0.24 66 1009.7
20260507201505 73 44 5.0 11.0 0.00 0.46 0.24 63 1009.6
20260507201102 74 68 2.0 9.0 0.00 0.46 0.24 67 1009.6
20260507200602 74 295 5.0 14.0 0.00 0.46 0.24 65 1009.6